Vertical_Velocity
0 3 0 2 1 2 1 1 1 -0 -1 3 1 1 3 3 1 2 2 0 -0 1 1 2 2 1 2 2 1 1 3 3 1 2 -1 2 2 3 3 1 -0 -2 4 1 2 1 -1
3 -0 2 1 1 0 -0 1 1 0 1 -0 1 2 2 -1 -0 0 1 2 1 -0 1 1 2 2 0 1 3 2 3 1 2 0 -1 3 2 2 1 -0 0 -1 -0 3 1 3 -2
-0 1 -1 2 1 0 1 0 2 0 0 -1 -0 1 0 1 4 1 1 1 1 1 2 2 1 0 2 3 1 2 2 0 1 -0 -2 1 1 1 1 2 -2 -1 -5 -2 1 3 -2
-1 1 0 -0 2 1 0 0 0 -0 1 1 0 0 0 0 1 0 0 0 1 1 0 1 1 1 3 3 2 2 1 1 1 0 1 1 1 0 -1 1 -1 -1 -2 -4 3 3 1
-1 -1 -1 0 -0 1 2 0 0 1 1 0 1 1 1 0 0 1 0 1 -0 1 2 2 2 3 4 2 1 0 2 0 2 -1 -0 0 -0 1 1 0 0 -2 -4 -2 -1 1 1
1 -1 -0 -1 1 -0 0 2 2 1 0 0 -0 0 -1 0 -1 -0 0 2 2 3 1 1 1 3 2 1 2 2 1 2 2 1 1 0 -0 -3 -1 0 -11 -1 -1 -1 1 0 -1
-0 1 -0 -1 -1 -0 -0 0 1 1 1 1 1 1 1 0 0 1 1 0 1 -0 2 2 2 1 2 -1 1 1 3 1 2 1 1 2 -1 -13 15 7 4 4 2 -1 -2 4 -0
-2 0 -0 -0 -0 -0 -0 -1 -1 -0 1 1 1 2 0 -0 1 1 2 1 2 2 1 1 2 2 1 1 1 2 2 2 2 3 2 2 -12 13 4 2 2 2 0 -6 -4 2 3
-2 -2 -1 -1 -0 0 -1 -2 -2 -1 -0 -1 1 0 0 -1 1 2 1 2 1 2 1 -1 1 2 2 2 1 0 1 3 2 0 2 2 -1 3 2 3 2 2 -0 -3 2 1 -1
-2 -2 -2 -2 -1 -1 0 -2 -1 -2 -0 -1 -1 -0 0 -1 1 0 2 1 2 2 -1 0 -0 -2 1 2 1 3 2 2 1 2 0 -3 3 -1 2 -4 7 -1 5 4 -0 3 -2
-1 -2 -1 -1 -2 -2 -1 -1 -1 -0 -1 -1 -1 1 1 -0 0 0 1 1 2 1 -3 1 2 2 2 3 1 1 3 2 2 2 0 3 2 0 -1 1 4 0 -2 1 1 2 3
-1 -0 -1 -1 -0 -1 -1 -2 -1 -0 -1 -1 -0 2 1 -0 1 2 1 2 2 2 -9 2 1 2 3 2 2 1 3 1 0 -1 -2 -1 0 -4 1 1 3 3 2 0 1 2 3
0 -3 -2 -1 -0 -1 0 -0 -1 -0 -1 -1 0 1 2 1 3 2 2 3 1 0 -0 3 1 2 2 1 1 2 0 1 0 0 -0 1 0 -0 3 3 3 5 4 -4 -2 1 -7
-2 -2 0 -2 -2 -1 0 -0 1 0 1 0 0 -0 2 1 2 3 4 3 2 0 2 0 -0 1 1 1 2 2 1 2 2 1 -0 -2 -2 4 3 2 1 1 1 -6 -3 -2 -3
-2 -2 -1 -1 -2 -1 1 1 2 1 1 -0 1 0 1 1 3 4 5 2 -1 0 -0 -0 1 1 1 1 0 2 2 1 0 -1 -1 -0 -5 3 1 1 1 3 -1 3 4 3 3
-1 -1 2 -1 -3 0 1 2 2 -0 0 0 1 1 -0 1 2 3 2 1 -0 -0 -0 0 0 -0 1 0 -1 0 1 -1 -1 -1 0 -0 -7 -5 4 2 8 4 5 5 1 -1 -0
-2 1 1 1 -0 -0 -0 0 1 1 1 0 1 2 1 1 2 2 0 -2 -1 -0 0 -1 -0 -0 -0 -1 -0 -1 -2 -1 -0 -2 -0 0 0 -5 -1 2 -2 -1 4 5 -2 5 1
-1 2 0 0 -2 -1 2 1 1 -1 -0 2 1 0 2 2 -0 0 0 -0 1 -0 -0 -1 -2 -1 0 -1 -1 -1 -0 -1 -0 -1 -1 -2 2 -1 -2 -2 -1 2 3 -1 1 -6 0
-0 3 2 -2 -1 1 3 -4 3 2 0 2 0 2 3 3 1 1 1 0 0 0 -0 -1 -1 -1 -0 -0 -1 -0 -0 -1 -2 -3 0 -5 4 -3 7 0 2 -1 -1 -1 -2 1 -2
-1 4 3 -2 -1 -2 -2 2 1 1 0 1 2 1 2 3 2 2 1 0 0 0 0 0 -0 -0 -0 -1 -0 0 0 1 -0 -0 -1 2 -2 -3 -6 1 -4 -5 -5 -0 4 -0 -2
1 -0 -2 1 -1 -1 -3 -2 -3 -0 -0 -0 2 -1 -0 1 -0 1 0 -0 -0 -1 -1 -0 -0 -0 -0 -1 -2 -2 -0 1 1 -1 -2 1 0 -1 4 1 3 1 -0 -2 -2 0 0
-1 -2 1 1 -1 -3 -2 -2 -1 -2 0 -1 0 1 -1 -1 -0 -1 -0 -0 0 0 0 -1 -0 -1 -1 -1 -0 -1 -1 -1 -3 1 -0 -0 -1 1 -5 -2 4 6 1 -0 -1 -1 -1
-1 1 2 -2 -1 -2 1 0 0 2 -1 1 -1 -2 0 -1 0 -0 -1 -2 -1 -0 -1 -0 -0 -1 -2 -2 -1 -1 -1 -1 0 -0 3 -1 -1 0 -2 1 -0 -2 -1 -0 -1 -2 -1
-0 1 -0 1 -2 -0 2 1 -0 -1 2 1 -1 -1 -3 -2 0 -1 -1 -1 -1 0 -1 -1 -1 -1 -0 -2 -1 -3 -1 -0 -0 -1 -1 0 -0 -0 -1 1 -4 -2 -1 0 1 1 0
-1 -0 1 -0 1 0 1 -0 -1 2 -1 1 -1 -4 -1 -1 2 -2 -2 -2 -1 -1 -1 -1 -1 -1 -1 2 2 -1 -1 0 1 0 -0 1 0 3 1 -0 -0 -1 1 -0 -0 -0 -0
0 0 -1 -0 -0 0 -2 1 0 -0 1 -4 -1 -0 -2 -3 -3 -0 -1 -1 -2 -2 -1 -2 -1 -1 -3 -2 -1 0 -0 1 3 2 1 -0 -1 0 -0 -0 -1 -1 0 1 0 -3 -0
-1 -1 -1 -1 -1 0 0 0 -2 -1 -0 -0 -3 -3 -1 -3 -4 -2 -1 -1 -0 -2 0 -2 -4 -2 -3 -1 -1 -1 0 -0 0 -0 0 1 1 -0 1 -0 -0 0 -1 -1 -0 -2 -0
-0 -1 -2 -2 -2 -2 -2 -3 -2 -2 -2 -2 -2 -5 -2 -2 -0 -0 -1 -1 -2 -2 -1 2 -1 1 0 -2 -1 -1 1 0 -1 -0 -1 -1 -1 -0 0 -0 -2 0 0 0 -0 -1 1
-1 -1 -0 -1 -2 -2 -2 -2 -2 -2 -2 -3 -2 -1 -2 -3 0 0 0 -1 -1 -0 -2 -1 -0 -1 -1 -1 -0 -1 -1 -1 -0 -1 -0 -1 -1 -2 -0 0 1 1 -0 -0 -1 0 -1
Height
3095 3093 3091 3089 3088 3086 3084 3082 3079 3077 3075 3073 3071 3070 3068 3067 3067 3067 3068 3068 3069 3070 3071 3072 3072 3073 3074 3076 3076 3075 3076 3077 3079 3081 3082 3084 3086 3088 3089 3089 3090 3090 3092 3093 3094 3095 3095
3092 3090 3088 3087 3085 3083 3082 3080 3078 3076 3075 3073 3072 3070 3068 3067 3067 3067 3067 3067 3068 3068 3069 3070 3071 3071 3073 3075 3074 3074 3075 3076 3078 3079 3081 3083 3085 3086 3086 3087 3089 3088 3089 3090 3090 3092 3092
3090 3088 3086 3084 3083 3081 3079 3078 3076 3075 3074 3073 3071 3070 3068 3067 3067 3066 3066 3066 3067 3067 3068 3068 3069 3070 3071 3073 3071 3072 3073 3075 3077 3079 3080 3081 3082 3084 3084 3086 3086 3086 3086 3087 3088 3089 3089
3088 3086 3084 3081 3080 3078 3077 3076 3074 3073 3072 3071 3070 3069 3068 3067 3066 3065 3065 3065 3065 3065 3066 3066 3067 3068 3068 3069 3069 3070 3072 3074 3075 3077 3079 3079 3080 3081 3082 3084 3084 3084 3084 3084 3086 3086 3087
3084 3083 3080 3078 3076 3075 3074 3073 3072 3070 3069 3069 3068 3067 3066 3065 3065 3064 3064 3064 3064 3064 3064 3064 3065 3065 3066 3066 3066 3067 3069 3071 3073 3075 3076 3077 3078 3079 3081 3081 3082 3081 3081 3082 3083 3084 3084
3081 3079 3077 3075 3074 3072 3070 3069 3068 3067 3066 3065 3065 3064 3063 3063 3063 3062 3062 3062 3062 3062 3062 3062 3062 3065 3063 3063 3063 3064 3066 3068 3070 3072 3073 3074 3074 3075 3075 3077 3077 3078 3079 3079 3080 3082 3081
3078 3075 3073 3071 3069 3068 3066 3065 3064 3063 3062 3062 3061 3061 3060 3060 3060 3059 3060 3060 3062 3061 3059 3059 3060 3059 3059 3060 3062 3062 3064 3065 3066 3068 3068 3070 3071 3069 3073 3075 3076 3075 3076 3076 3077 3077 3075
3074 3071 3069 3067 3065 3063 3061 3060 3059 3058 3057 3057 3057 3056 3056 3055 3056 3056 3056 3056 3057 3058 3057 3055 3055 3056 3057 3058 3060 3060 3062 3064 3064 3064 3066 3067 3065 3070 3070 3070 3070 3071 3071 3070 3071 3072 3070
3070 3067 3064 3062 3060 3058 3056 3054 3053 3052 3051 3051 3051 3051 3050 3050 3051 3052 3052 3053 3053 3053 3053 3051 3050 3051 3052 3054 3054 3056 3058 3059 3060 3061 3062 3062 3066 3065 3065 3065 3066 3066 3066 3066 3067 3067 3064
3064 3061 3059 3056 3054 3053 3051 3049 3048 3047 3046 3045 3045 3045 3045 3045 3048 3047 3048 3049 3050 3051 3050 3049 3047 3046 3048 3048 3049 3051 3053 3057 3056 3057 3058 3059 3060 3059 3059 3061 3063 3061 3063 3062 3063 3063 3061
3060 3057 3053 3051 3048 3047 3046 3044 3043 3042 3041 3040 3040 3040 3040 3040 3041 3043 3045 3045 3047 3049 3050 3047 3045 3045 3045 3047 3048 3049 3050 3051 3053 3054 3057 3057 3056 3057 3057 3058 3058 3059 3058 3058 3058 3058 3058
3057 3054 3050 3047 3044 3041 3040 3039 3038 3037 3036 3034 3034 3034 3035 3036 3037 3039 3040 3042 3045 3049 3044 3043 3042 3043 3044 3045 3046 3047 3048 3050 3051 3051 3052 3052 3054 3053 3054 3054 3055 3055 3056 3055 3054 3055 3053
3055 3051 3047 3044 3041 3038 3036 3034 3033 3032 3030 3029 3028 3028 3029 3030 3032 3034 3037 3040 3044 3041 3042 3042 3041 3042 3043 3044 3045 3046 3047 3047 3049 3050 3049 3049 3050 3050 3050 3050 3050 3050 3052 3054 3053 3053 3046
3052 3049 3046 3042 3039 3036 3034 3032 3030 3028 3027 3025 3024 3024 3023 3024 3027 3029 3033 3037 3037 3036 3037 3038 3040 3041 3042 3043 3044 3044 3044 3045 3046 3047 3047 3046 3047 3046 3046 3047 3048 3047 3049 3049 3049 3047 3042
3051 3048 3045 3041 3038 3035 3033 3030 3029 3027 3025 3023 3021 3021 3020 3021 3023 3026 3031 3032 3031 3033 3035 3036 3038 3039 3040 3041 3043 3043 3043 3043 3044 3044 3047 3044 3043 3043 3043 3044 3046 3045 3046 3046 3044 3041 3040
3050 3046 3044 3040 3037 3035 3033 3030 3028 3026 3024 3022 3021 3020 3019 3019 3021 3024 3028 3028 3029 3030 3032 3034 3036 3037 3038 3039 3041 3040 3040 3041 3041 3041 3042 3041 3041 3039 3042 3041 3042 3042 3043 3043 3042 3041 3036
3048 3046 3044 3041 3037 3034 3032 3030 3028 3026 3024 3022 3021 3021 3020 3020 3022 3024 3025 3026 3027 3029 3031 3033 3033 3034 3036 3036 3037 3037 3038 3039 3038 3038 3039 3039 3038 3037 3038 3037 3036 3038 3037 3038 3039 3037 3030
3045 3045 3043 3041 3038 3034 3032 3030 3028 3026 3024 3023 3021 3021 3020 3021 3023 3023 3024 3024 3026 3027 3029 3030 3031 3032 3033 3033 3033 3034 3034 3035 3035 3035 3035 3035 3033 3031 3034 3032 3031 3031 3032 3033 3035 3033 3032
3045 3043 3043 3040 3037 3033 3031 3030 3027 3026 3024 3022 3021 3021 3020 3021 3021 3021 3022 3023 3024 3025 3026 3027 3028 3029 3030 3031 3033 3031 3031 3032 3031 3032 3031 3031 3030 3029 3030 3031 3030 3029 3030 3032 3033 3033 3029
3045 3042 3041 3039 3036 3033 3030 3029 3027 3025 3023 3022 3021 3020 3020 3019 3019 3020 3020 3021 3022 3023 3023 3024 3025 3026 3027 3027 3028 3028 3028 3028 3028 3028 3029 3028 3026 3028 3027 3026 3027 3027 3027 3028 3029 3029 3024
3044 3042 3039 3037 3035 3032 3030 3028 3025 3023 3021 3020 3018 3018 3018 3018 3018 3018 3019 3020 3020 3021 3021 3022 3022 3023 3023 3023 3023 3023 3024 3025 3025 3024 3022 3024 3021 3022 3022 3023 3022 3019 3020 3021 3021 3021 3020
3043 3041 3038 3037 3034 3031 3029 3026 3023 3021 3019 3018 3017 3017 3016 3017 3017 3017 3017 3018 3018 3018 3019 3019 3019 3018 3018 3019 3020 3019 3018 3019 3019 3019 3019 3017 3018 3016 3016 3018 3017 3013 3013 3014 3015 3015 3014
3042 3039 3037 3035 3032 3029 3026 3024 3022 3020 3019 3017 3016 3016 3016 3016 3016 3016 3016 3016 3016 3016 3016 3016 3016 3015 3015 3016 3015 3014 3014 3015 3015 3015 3015 3015 3014 3014 3013 3013 3012 3012 3010 3010 3010 3010 3010
3041 3039 3036 3034 3031 3028 3025 3024 3023 3020 3018 3016 3016 3016 3016 3016 3015 3014 3014 3014 3015 3014 3014 3013 3013 3013 3014 3012 3012 3011 3012 3011 3012 3011 3011 3011 3012 3014 3013 3013 3015 3009 3008 3008 3006 3005 3004
3041 3038 3036 3033 3031 3029 3027 3024 3022 3020 3019 3018 3016 3016 3015 3014 3013 3013 3012 3012 3012 3011 3011 3010 3010 3010 3010 3011 3011 3009 3010 3010 3010 3010 3009 3010 3012 3013 3012 3011 3009 3006 3005 3005 3003 3002 3000
3041 3039 3036 3033 3031 3029 3026 3023 3022 3020 3018 3016 3015 3014 3013 3013 3012 3011 3010 3010 3009 3009 3009 3008 3007 3007 3007 3008 3008 3008 3008 3009 3010 3010 3009 3010 3011 3013 3011 3010 3009 3005 3004 3002 3001 2997 2996
3041 3038 3036 3032 3030 3027 3025 3023 3020 3018 3016 3015 3013 3012 3011 3009 3009 3009 3007 3007 3007 3006 3006 3005 3006 3006 3005 3005 3006 3007 3008 3008 3009 3008 3009 3009 3009 3009 3007 3006 3004 3002 3002 3000 3001 3001 2993
3041 3038 3035 3032 3029 3026 3023 3020 3018 3016 3014 3012 3010 3008 3008 3006 3005 3004 3004 3004 3003 3004 3003 3004 3006 3004 3004 3004 3006 3006 3006 3006 3007 3007 3007 3008 3008 3006 3005 3004 3003 3001 3000 3001 2997 2992 2990
3039 3036 3033 3029 3026 3023 3020 3017 3015 3012 3010 3008 3006 3004 3003 3003 3003 3001 3000 3000 3001 3001 3002 3003 3004 3003 3003 3004 3005 3005 3006 3006 3006 3006 3005 3007 3006 3006 3006 3002 2999 2997 2996 2993 2990 2987 2985